Year,Month,Day,Hour,Minute,Value (Times are PST for insolation in W/m^2)
2016,10,05,00,00,0.00
2016,10,05,00,01,0.00
2016,10,05,00,02,0.00
2016,10,05,00,03,0.00
2016,10,05,00,04,0.00
2016,10,05,00,05,0.00
2016,10,05,00,06,0.00
2016,10,05,00,07,0.00
2016,10,05,00,08,0.00
2016,10,05,00,09,0.00
2016,10,05,00,10,0.00
2016,10,05,00,11,0.00
2016,10,05,00,12,0.00
2016,10,05,00,13,0.00
2016,10,05,00,14,0.00
2016,10,05,00,15,0.00
2016,10,05,00,16,0.00
2016,10,05,00,17,0.00
2016,10,05,00,18,0.00
2016,10,05,00,19,0.00
2016,10,05,00,20,0.00
2016,10,05,00,21,0.00
2016,10,05,00,22,0.00
2016,10,05,00,23,0.00
2016,10,05,00,24,0.00
2016,10,05,00,25,0.00
2016,10,05,00,26,0.00
2016,10,05,00,27,0.00
2016,10,05,00,28,0.00
2016,10,05,00,29,0.00
2016,10,05,00,30,0.00
2016,10,05,00,31,0.00
2016,10,05,00,32,0.00
2016,10,05,00,33,0.00
2016,10,05,00,34,0.00
2016,10,05,00,35,0.00
2016,10,05,00,36,0.00
2016,10,05,00,37,0.00
2016,10,05,00,38,0.00
2016,10,05,00,39,0.00
2016,10,05,00,40,0.00
2016,10,05,00,41,0.00
2016,10,05,00,42,0.00
2016,10,05,00,43,0.00
2016,10,05,00,44,0.00
2016,10,05,00,45,0.00
2016,10,05,00,46,0.00
2016,10,05,00,47,0.00
2016,10,05,00,48,0.00
2016,10,05,00,49,0.00
2016,10,05,00,50,0.00
2016,10,05,00,51,0.00
2016,10,05,00,52,0.00
2016,10,05,00,53,0.00
2016,10,05,00,54,0.00
2016,10,05,00,55,0.00
2016,10,05,00,56,0.00
2016,10,05,00,57,0.00
2016,10,05,00,58,0.00
2016,10,05,00,59,0.00
2016,10,05,01,00,0.00
2016,10,05,01,01,0.00
2016,10,05,01,02,0.00
2016,10,05,01,03,0.00
2016,10,05,01,04,0.00
2016,10,05,01,05,0.00
2016,10,05,01,06,0.00
2016,10,05,01,07,0.00
2016,10,05,01,08,0.00
2016,10,05,01,09,0.00
2016,10,05,01,10,0.00
2016,10,05,01,11,0.00
2016,10,05,01,12,0.00
2016,10,05,01,13,0.00
2016,10,05,01,14,0.00
2016,10,05,01,15,0.00
2016,10,05,01,16,0.00
2016,10,05,01,17,0.00
2016,10,05,01,18,0.00
2016,10,05,01,19,0.00
2016,10,05,01,20,0.00
2016,10,05,01,21,0.00
2016,10,05,01,22,0.00
2016,10,05,01,23,0.00
2016,10,05,01,24,0.00
2016,10,05,01,25,0.00
2016,10,05,01,26,0.00
2016,10,05,01,27,0.00
2016,10,05,01,28,0.00
2016,10,05,01,29,0.00
2016,10,05,01,30,0.00
2016,10,05,01,31,0.00
2016,10,05,01,32,0.00
2016,10,05,01,33,0.00
2016,10,05,01,34,0.00
2016,10,05,01,35,0.00
2016,10,05,01,36,0.00
2016,10,05,01,37,0.00
2016,10,05,01,38,0.00
2016,10,05,01,39,0.00
2016,10,05,01,40,0.00
2016,10,05,01,41,0.00
2016,10,05,01,42,0.00
2016,10,05,01,43,0.00
2016,10,05,01,44,0.00
2016,10,05,01,45,0.00
2016,10,05,01,46,0.00
2016,10,05,01,47,0.00
2016,10,05,01,48,0.00
2016,10,05,01,49,0.00
2016,10,05,01,50,0.00
2016,10,05,01,51,0.00
2016,10,05,01,52,0.00
2016,10,05,01,53,0.00
2016,10,05,01,54,0.00
2016,10,05,01,55,0.00
2016,10,05,01,56,0.00
2016,10,05,01,57,0.00
2016,10,05,01,58,0.00
2016,10,05,01,59,0.00
2016,10,05,02,00,0.00
2016,10,05,02,01,0.00
2016,10,05,02,02,0.00
2016,10,05,02,03,0.00
2016,10,05,02,04,0.00
2016,10,05,02,05,0.00
2016,10,05,02,06,0.00
2016,10,05,02,07,0.00
2016,10,05,02,08,0.00
2016,10,05,02,09,0.00
2016,10,05,02,10,0.00
2016,10,05,02,11,0.00
2016,10,05,02,12,0.00
2016,10,05,02,13,0.00
2016,10,05,02,14,0.00
2016,10,05,02,15,0.00
2016,10,05,02,16,0.00
2016,10,05,02,17,0.00
2016,10,05,02,18,0.00
2016,10,05,02,19,0.00
2016,10,05,02,20,0.00
2016,10,05,02,21,0.00
2016,10,05,02,22,0.00
2016,10,05,02,23,0.00
2016,10,05,02,24,0.00
2016,10,05,02,25,0.00
2016,10,05,02,26,0.00
2016,10,05,02,27,0.00
2016,10,05,02,28,0.00
2016,10,05,02,29,0.00
2016,10,05,02,30,0.00
2016,10,05,02,31,0.00
2016,10,05,02,32,0.00
2016,10,05,02,33,0.00
2016,10,05,02,34,0.00
2016,10,05,02,35,0.00
2016,10,05,02,36,0.00
2016,10,05,02,37,0.00
2016,10,05,02,38,0.00
2016,10,05,02,39,0.00
2016,10,05,02,40,0.00
2016,10,05,02,41,0.00
2016,10,05,02,42,0.00
2016,10,05,02,43,0.00
2016,10,05,02,44,0.00
2016,10,05,02,45,0.00
2016,10,05,02,46,0.00
2016,10,05,02,47,0.00
2016,10,05,02,48,0.00
2016,10,05,02,49,0.00
2016,10,05,02,50,0.00
2016,10,05,02,51,0.00
2016,10,05,02,52,0.00
2016,10,05,02,53,0.00
2016,10,05,02,54,0.00
2016,10,05,02,55,0.00
2016,10,05,02,56,0.00
2016,10,05,02,57,0.00
2016,10,05,02,58,0.00
2016,10,05,02,59,0.00
2016,10,05,03,00,0.00
2016,10,05,03,01,0.00
2016,10,05,03,02,0.00
2016,10,05,03,03,0.00
2016,10,05,03,04,0.00
2016,10,05,03,05,0.00
2016,10,05,03,06,0.00
2016,10,05,03,07,0.00
2016,10,05,03,08,0.00
2016,10,05,03,09,0.00
2016,10,05,03,10,0.00
2016,10,05,03,11,0.00
2016,10,05,03,12,0.00
2016,10,05,03,13,0.00
2016,10,05,03,14,0.00
2016,10,05,03,15,0.00
2016,10,05,03,16,0.00
2016,10,05,03,17,0.00
2016,10,05,03,18,0.00
2016,10,05,03,19,0.00
2016,10,05,03,20,0.00
2016,10,05,03,21,0.00
2016,10,05,03,22,0.00
2016,10,05,03,23,0.00
2016,10,05,03,24,0.00
2016,10,05,03,25,0.00
2016,10,05,03,26,0.00
2016,10,05,03,27,0.00
2016,10,05,03,28,0.00
2016,10,05,03,29,0.00
2016,10,05,03,30,0.00
2016,10,05,03,31,0.00
2016,10,05,03,32,0.00
2016,10,05,03,33,0.00
2016,10,05,03,34,0.00
2016,10,05,03,35,0.00
2016,10,05,03,36,0.00
2016,10,05,03,37,0.00
2016,10,05,03,38,0.00
2016,10,05,03,39,0.00
2016,10,05,03,40,0.00
2016,10,05,03,41,0.00
2016,10,05,03,42,0.00
2016,10,05,03,43,0.00
2016,10,05,03,44,0.00
2016,10,05,03,45,0.00
2016,10,05,03,46,0.00
2016,10,05,03,47,0.00
2016,10,05,03,48,0.00
2016,10,05,03,49,0.00
2016,10,05,03,50,0.00
2016,10,05,03,51,0.00
2016,10,05,03,52,0.00
2016,10,05,03,53,0.00
2016,10,05,03,54,0.00
2016,10,05,03,55,0.00
2016,10,05,03,56,0.00
2016,10,05,03,57,0.00
2016,10,05,03,58,0.00
2016,10,05,03,59,0.00
2016,10,05,04,00,0.00
2016,10,05,04,01,0.00
2016,10,05,04,02,0.00
2016,10,05,04,03,0.00
2016,10,05,04,04,0.00
2016,10,05,04,05,0.00
2016,10,05,04,06,0.00
2016,10,05,04,07,0.00
2016,10,05,04,08,0.00
2016,10,05,04,09,0.00
2016,10,05,04,10,0.00
2016,10,05,04,11,0.00
2016,10,05,04,12,0.00
2016,10,05,04,13,0.00
2016,10,05,04,14,0.00
2016,10,05,04,15,0.00
2016,10,05,04,16,0.00
2016,10,05,04,17,0.00
2016,10,05,04,18,0.00
2016,10,05,04,19,0.00
2016,10,05,04,20,0.00
2016,10,05,04,21,0.00
2016,10,05,04,22,0.00
2016,10,05,04,23,0.00
2016,10,05,04,24,0.00
2016,10,05,04,25,0.00
2016,10,05,04,26,0.00
2016,10,05,04,27,0.00
2016,10,05,04,28,0.00
2016,10,05,04,29,0.00
2016,10,05,04,30,0.00
2016,10,05,04,31,0.00
2016,10,05,04,32,0.00
2016,10,05,04,33,0.00
2016,10,05,04,34,0.00
2016,10,05,04,35,0.00
2016,10,05,04,36,0.00
2016,10,05,04,37,0.00
2016,10,05,04,38,0.00
2016,10,05,04,39,0.00
2016,10,05,04,40,0.00
2016,10,05,04,41,0.00
2016,10,05,04,42,0.00
2016,10,05,04,43,0.00
2016,10,05,04,44,0.00
2016,10,05,04,45,0.00
2016,10,05,04,46,0.00
2016,10,05,04,47,0.00
2016,10,05,04,48,0.00
2016,10,05,04,49,0.00
2016,10,05,04,50,0.00
2016,10,05,04,51,0.00
2016,10,05,04,52,0.00
2016,10,05,04,53,0.00
2016,10,05,04,54,0.00
2016,10,05,04,55,0.00
2016,10,05,04,56,0.00
2016,10,05,04,57,0.00
2016,10,05,04,58,0.00
2016,10,05,04,59,0.00
2016,10,05,05,00,0.00
2016,10,05,05,01,0.00
2016,10,05,05,02,0.00
2016,10,05,05,03,0.00
2016,10,05,05,04,0.00
2016,10,05,05,05,0.00
2016,10,05,05,06,0.00
2016,10,05,05,07,0.00
2016,10,05,05,08,0.00
2016,10,05,05,09,0.00
2016,10,05,05,10,0.00
2016,10,05,05,11,0.00
2016,10,05,05,12,0.00
2016,10,05,05,13,0.00
2016,10,05,05,14,0.00
2016,10,05,05,15,0.00
2016,10,05,05,16,0.00
2016,10,05,05,17,0.00
2016,10,05,05,18,0.00
2016,10,05,05,19,0.00
2016,10,05,05,20,0.00
2016,10,05,05,21,0.00
2016,10,05,05,22,0.00
2016,10,05,05,23,0.00
2016,10,05,05,24,0.00
2016,10,05,05,25,0.00
2016,10,05,05,26,0.00
2016,10,05,05,27,0.00
2016,10,05,05,28,0.00
2016,10,05,05,29,0.00
2016,10,05,05,30,0.00
2016,10,05,05,31,0.00
2016,10,05,05,32,0.00
2016,10,05,05,33,0.00
2016,10,05,05,34,0.00
2016,10,05,05,35,0.00
2016,10,05,05,36,0.00
2016,10,05,05,37,0.00
2016,10,05,05,38,0.00
2016,10,05,05,39,0.00
2016,10,05,05,40,0.00
2016,10,05,05,41,0.00
2016,10,05,05,42,0.00
2016,10,05,05,43,0.00
2016,10,05,05,44,0.00
2016,10,05,05,45,0.00
2016,10,05,05,46,0.00
2016,10,05,05,47,0.00
2016,10,05,05,48,0.00
2016,10,05,05,49,0.00
2016,10,05,05,50,0.00
2016,10,05,05,51,0.00
2016,10,05,05,52,0.00
2016,10,05,05,53,0.00
2016,10,05,05,54,0.00
2016,10,05,05,55,0.00
2016,10,05,05,56,0.00
2016,10,05,05,57,0.00
2016,10,05,05,58,0.00
2016,10,05,05,59,0.00
2016,10,05,06,00,0.00
2016,10,05,06,01,0.00
2016,10,05,06,02,0.00
2016,10,05,06,03,0.00
2016,10,05,06,04,0.00
2016,10,05,06,05,0.00
2016,10,05,06,06,0.00
2016,10,05,06,07,0.00
2016,10,05,06,08,0.00
2016,10,05,06,09,0.00
2016,10,05,06,10,0.00
2016,10,05,06,11,0.00
2016,10,05,06,12,0.00
2016,10,05,06,13,0.00
2016,10,05,06,14,0.00
2016,10,05,06,15,0.00
2016,10,05,06,16,0.00
2016,10,05,06,17,0.00
2016,10,05,06,18,0.00
2016,10,05,06,19,0.00
2016,10,05,06,20,0.00
2016,10,05,06,21,0.00
2016,10,05,06,22,0.00
2016,10,05,06,23,0.00
2016,10,05,06,24,0.00
2016,10,05,06,25,0.00
2016,10,05,06,26,0.00
2016,10,05,06,27,0.00
2016,10,05,06,28,0.00
2016,10,05,06,29,0.00
2016,10,05,06,30,0.00
2016,10,05,06,31,0.00
2016,10,05,06,32,0.00
2016,10,05,06,33,0.00
2016,10,05,06,34,0.00
2016,10,05,06,35,0.00
2016,10,05,06,36,0.00
2016,10,05,06,37,0.00
2016,10,05,06,38,0.00
2016,10,05,06,39,0.00
2016,10,05,06,40,0.00
2016,10,05,06,41,0.00
2016,10,05,06,42,0.00
2016,10,05,06,43,0.00
2016,10,05,06,44,0.00
2016,10,05,06,45,0.00
2016,10,05,06,46,0.00
2016,10,05,06,47,0.00
2016,10,05,06,48,0.00
2016,10,05,06,49,0.00
2016,10,05,06,50,0.00
2016,10,05,06,51,0.00
2016,10,05,06,52,0.00
2016,10,05,06,53,0.00
2016,10,05,06,54,0.00
2016,10,05,06,55,0.00
2016,10,05,06,56,0.00
2016,10,05,06,57,0.00
2016,10,05,06,58,0.00
2016,10,05,06,59,0.00
2016,10,05,07,00,0.00
2016,10,05,07,01,0.00
2016,10,05,07,02,0.00
2016,10,05,07,03,0.00
2016,10,05,07,04,0.00
2016,10,05,07,05,0.00
2016,10,05,07,06,0.00
2016,10,05,07,07,0.00
2016,10,05,07,08,0.00
2016,10,05,07,09,0.00
2016,10,05,07,10,0.00
2016,10,05,07,11,0.00
2016,10,05,07,12,0.00
2016,10,05,07,13,0.00
2016,10,05,07,14,0.00
2016,10,05,07,15,0.00
2016,10,05,07,16,0.00
2016,10,05,07,17,0.00
2016,10,05,07,18,0.00
2016,10,05,07,19,0.00
2016,10,05,07,20,0.00
2016,10,05,07,21,0.00
2016,10,05,07,22,0.00
2016,10,05,07,23,0.00
2016,10,05,07,24,0.00
2016,10,05,07,25,0.00
2016,10,05,07,26,0.00
2016,10,05,07,27,0.00
2016,10,05,07,28,0.00
2016,10,05,07,29,0.00
2016,10,05,07,30,0.00
2016,10,05,07,31,0.00
2016,10,05,07,32,0.00
2016,10,05,07,33,0.00
2016,10,05,07,34,3.80
2016,10,05,07,35,5.00
2016,10,05,07,36,5.00
2016,10,05,07,37,5.00
2016,10,05,07,38,5.00
2016,10,05,07,39,6.00
2016,10,05,07,40,7.00
2016,10,05,07,41,7.00
2016,10,05,07,42,8.60
2016,10,05,07,43,9.20
2016,10,05,07,44,11.20
2016,10,05,07,45,12.00
2016,10,05,07,46,13.00
2016,10,05,07,47,15.10
2016,10,05,07,48,16.00
2016,10,05,07,49,16.00
2016,10,05,07,50,17.90
2016,10,05,07,51,18.00
2016,10,05,07,52,18.00
2016,10,05,07,53,18.00
2016,10,05,07,54,18.00
2016,10,05,07,55,18.70
2016,10,05,07,56,19.00
2016,10,05,07,57,19.00
2016,10,05,07,58,19.00
2016,10,05,07,59,19.00
2016,10,05,08,00,19.90
2016,10,05,08,01,21.00
2016,10,05,08,02,21.00
2016,10,05,08,03,21.00
2016,10,05,08,04,21.00
2016,10,05,08,05,21.00
2016,10,05,08,06,21.00
2016,10,05,08,07,21.00
2016,10,05,08,08,21.00
2016,10,05,08,09,21.00
2016,10,05,08,10,22.60
2016,10,05,08,11,23.00
2016,10,05,08,12,23.40
2016,10,05,08,13,25.00
2016,10,05,08,14,25.50
2016,10,05,08,15,26.00
2016,10,05,08,16,27.40
2016,10,05,08,17,29.70
2016,10,05,08,18,30.10
2016,10,05,08,19,32.20
2016,10,05,08,20,33.00
2016,10,05,08,21,33.90
2016,10,05,08,22,36.10
2016,10,05,08,23,38.40
2016,10,05,08,24,39.80
2016,10,05,08,25,41.90
2016,10,05,08,26,42.40
2016,10,05,08,27,44.00
2016,10,05,08,28,44.00
2016,10,05,08,29,45.10
2016,10,05,08,30,46.00
2016,10,05,08,31,46.80
2016,10,05,08,32,47.20
2016,10,05,08,33,49.80
2016,10,05,08,34,53.30
2016,10,05,08,35,55.80
2016,10,05,08,36,59.10
2016,10,05,08,37,61.40
2016,10,05,08,38,62.80
2016,10,05,08,39,63.20
2016,10,05,08,40,65.50
2016,10,05,08,41,67.00
2016,10,05,08,42,67.90
2016,10,05,08,43,69.00
2016,10,05,08,44,69.70
2016,10,05,08,45,70.00
2016,10,05,08,46,72.10
2016,10,05,08,47,74.00
2016,10,05,08,48,74.70
2016,10,05,08,49,76.50
2016,10,05,08,50,78.10
2016,10,05,08,51,80.30
2016,10,05,08,52,82.60
2016,10,05,08,53,83.10
2016,10,05,08,54,84.40
2016,10,05,08,55,87.20
2016,10,05,08,56,90.50
2016,10,05,08,57,93.30
2016,10,05,08,58,96.40
2016,10,05,08,59,97.80
2016,10,05,09,00,99.90
2016,10,05,09,01,100.00
2016,10,05,09,02,100.00
2016,10,05,09,03,100.00
2016,10,05,09,04,100.00
2016,10,05,09,05,100.00
2016,10,05,09,06,107.40
2016,10,05,09,07,121.50
2016,10,05,09,08,111.00
2016,10,05,09,09,105.70
2016,10,05,09,10,101.30
2016,10,05,09,11,91.00
2016,10,05,09,12,90.30
2016,10,05,09,13,86.70
2016,10,05,09,14,84.30
2016,10,05,09,15,86.00
2016,10,05,09,16,88.20
2016,10,05,09,17,91.70
2016,10,05,09,18,90.00
2016,10,05,09,19,90.00
2016,10,05,09,20,88.40
2016,10,05,09,21,86.10
2016,10,05,09,22,86.00
2016,10,05,09,23,86.70
2016,10,05,09,24,88.90
2016,10,05,09,25,92.70
2016,10,05,09,26,98.40
2016,10,05,09,27,104.10
2016,10,05,09,28,113.10
2016,10,05,09,29,119.00
2016,10,05,09,30,124.30
2016,10,05,09,31,127.40
2016,10,05,09,32,128.00
2016,10,05,09,33,129.40
2016,10,05,09,34,131.60
2016,10,05,09,35,134.40
2016,10,05,09,36,139.00
2016,10,05,09,37,142.40
2016,10,05,09,38,153.30
2016,10,05,09,39,160.00
2016,10,05,09,40,160.90
2016,10,05,09,41,160.00
2016,10,05,09,42,160.00
2016,10,05,09,43,160.00
2016,10,05,09,44,160.00
2016,10,05,09,45,161.40
2016,10,05,09,46,166.50
2016,10,05,09,47,170.50
2016,10,05,09,48,173.60
2016,10,05,09,49,180.70
2016,10,05,09,50,181.00
2016,10,05,09,51,182.30
2016,10,05,09,52,186.40
2016,10,05,09,53,189.10
2016,10,05,09,54,188.60
2016,10,05,09,55,182.30
2016,10,05,09,56,177.80
2016,10,05,09,57,173.10
2016,10,05,09,58,168.40
2016,10,05,09,59,166.10
2016,10,05,10,00,166.10
2016,10,05,10,01,167.00
2016,10,05,10,02,167.00
2016,10,05,10,03,165.10
2016,10,05,10,04,165.00
2016,10,05,10,05,166.30
2016,10,05,10,06,170.00
2016,10,05,10,07,171.60
2016,10,05,10,08,172.00
2016,10,05,10,09,171.20
2016,10,05,10,10,166.70
2016,10,05,10,11,160.40
2016,10,05,10,12,153.80
2016,10,05,10,13,149.60
2016,10,05,10,14,146.80
2016,10,05,10,15,144.60
2016,10,05,10,16,144.00
2016,10,05,10,17,146.00
2016,10,05,10,18,148.20
2016,10,05,10,19,150.90
2016,10,05,10,20,157.40
2016,10,05,10,21,162.70
2016,10,05,10,22,167.70
2016,10,05,10,23,171.40
2016,10,05,10,24,173.90
2016,10,05,10,25,174.40
2016,10,05,10,26,175.30
2016,10,05,10,27,173.10
2016,10,05,10,28,171.40
2016,10,05,10,29,168.20
2016,10,05,10,30,165.40
2016,10,05,10,31,162.10
2016,10,05,10,32,161.50
2016,10,05,10,33,160.00
2016,10,05,10,34,160.00
2016,10,05,10,35,161.70
2016,10,05,10,36,167.30
2016,10,05,10,37,174.80
2016,10,05,10,38,185.20
2016,10,05,10,39,193.30
2016,10,05,10,40,202.00
2016,10,05,10,41,212.00
2016,10,05,10,42,216.00
2016,10,05,10,43,240.30
2016,10,05,10,44,251.00
2016,10,05,10,45,441.00
2016,10,05,10,46,478.20
2016,10,05,10,47,591.60
2016,10,05,10,48,538.90
2016,10,05,10,49,492.00
2016,10,05,10,50,556.70
2016,10,05,10,51,545.80
2016,10,05,10,52,521.20
2016,10,05,10,53,366.60
2016,10,05,10,54,336.90
2016,10,05,10,55,342.10
2016,10,05,10,56,382.00
2016,10,05,10,57,378.40
2016,10,05,10,58,329.60
2016,10,05,10,59,291.00
2016,10,05,11,00,315.00
2016,10,05,11,01,322.00
2016,10,05,11,02,336.30
2016,10,05,11,03,389.80
2016,10,05,11,04,407.50
2016,10,05,11,05,437.50
2016,10,05,11,06,515.40
2016,10,05,11,07,500.90
2016,10,05,11,08,460.30
2016,10,05,11,09,502.20
2016,10,05,11,10,508.30
2016,10,05,11,11,512.10
2016,10,05,11,12,495.80
2016,10,05,11,13,483.50
2016,10,05,11,14,517.00
2016,10,05,11,15,517.00
2016,10,05,11,16,517.00
2016,10,05,11,17,517.00
2016,10,05,11,18,467.60
2016,10,05,11,19,466.50
2016,10,05,11,20,501.10
2016,10,05,11,21,520.40
2016,10,05,11,22,533.00
2016,10,05,11,23,533.40
2016,10,05,11,24,544.00
2016,10,05,11,25,561.40
2016,10,05,11,26,575.00
2016,10,05,11,27,507.50
2016,10,05,11,28,504.00
2016,10,05,11,29,530.30
2016,10,05,11,30,596.00
2016,10,05,11,31,596.00
2016,10,05,11,32,596.00
2016,10,05,11,33,322.40
2016,10,05,11,34,316.80
2016,10,05,11,35,292.70
2016,10,05,11,36,269.10
2016,10,05,11,37,250.00
2016,10,05,11,38,255.70
2016,10,05,11,39,264.80
2016,10,05,11,40,264.50
2016,10,05,11,41,299.20
2016,10,05,11,42,326.80
2016,10,05,11,43,386.00
2016,10,05,11,44,408.70
2016,10,05,11,45,424.00
2016,10,05,11,46,305.40
2016,10,05,11,47,275.30
2016,10,05,11,48,291.40
2016,10,05,11,49,326.50
2016,10,05,11,50,456.70
2016,10,05,11,51,424.00
2016,10,05,11,52,424.00
2016,10,05,11,53,568.50
2016,10,05,11,54,636.00
2016,10,05,11,55,518.90
2016,10,05,11,56,513.00
2016,10,05,11,57,509.80
2016,10,05,11,58,503.00
2016,10,05,11,59,405.90
2016,10,05,12,00,288.90
2016,10,05,12,01,354.50
2016,10,05,12,02,362.50
2016,10,05,12,03,302.00
2016,10,05,12,04,288.20
2016,10,05,12,05,250.00
2016,10,05,12,06,250.00
2016,10,05,12,07,250.00
2016,10,05,12,08,250.00
2016,10,05,12,09,381.70
2016,10,05,12,10,388.00
2016,10,05,12,11,388.00
2016,10,05,12,12,344.40
2016,10,05,12,13,292.00
2016,10,05,12,14,292.00
2016,10,05,12,15,292.00
2016,10,05,12,16,370.10
2016,10,05,12,17,374.00
2016,10,05,12,18,346.70
2016,10,05,12,19,275.70
2016,10,05,12,20,301.30
2016,10,05,12,21,392.50
2016,10,05,12,22,422.00
2016,10,05,12,23,694.50
2016,10,05,12,24,711.60
2016,10,05,12,25,707.80
2016,10,05,12,26,701.50
2016,10,05,12,27,697.60
2016,10,05,12,28,685.10
2016,10,05,12,29,670.20
2016,10,05,12,30,663.30
2016,10,05,12,31,664.40
2016,10,05,12,32,667.50
2016,10,05,12,33,671.40
2016,10,05,12,34,675.40
2016,10,05,12,35,677.00
2016,10,05,12,36,623.30
2016,10,05,12,37,654.30
2016,10,05,12,38,659.00
2016,10,05,12,39,652.00
2016,10,05,12,40,620.20
2016,10,05,12,41,582.00
2016,10,05,12,42,370.00
2016,10,05,12,43,271.90
2016,10,05,12,44,286.60
2016,10,05,12,45,301.00
2016,10,05,12,46,348.00
2016,10,05,12,47,584.20
2016,10,05,12,48,816.80
2016,10,05,12,49,802.70
2016,10,05,12,50,805.00
2016,10,05,12,51,803.80
2016,10,05,12,52,793.00
2016,10,05,12,53,789.70
2016,10,05,12,54,782.00
2016,10,05,12,55,711.70
2016,10,05,12,56,659.00
2016,10,05,12,57,659.00
2016,10,05,12,58,659.00
2016,10,05,12,59,659.00
2016,10,05,13,00,671.30
2016,10,05,13,01,687.00
2016,10,05,13,02,677.00
2016,10,05,13,03,319.10
2016,10,05,13,04,176.00
2016,10,05,13,05,338.30
2016,10,05,13,06,388.50
2016,10,05,13,07,577.90
2016,10,05,13,08,571.80
2016,10,05,13,09,570.00
2016,10,05,13,10,570.00
2016,10,05,13,11,568.40
2016,10,05,13,12,568.20
2016,10,05,13,13,570.20
2016,10,05,13,14,570.10
2016,10,05,13,15,568.80
2016,10,05,13,16,570.00
2016,10,05,13,17,570.70
2016,10,05,13,18,575.90
2016,10,05,13,19,582.60
2016,10,05,13,20,592.70
2016,10,05,13,21,600.50
2016,10,05,13,22,611.80
2016,10,05,13,23,628.50
2016,10,05,13,24,643.40
2016,10,05,13,25,649.40
2016,10,05,13,26,642.20
2016,10,05,13,27,579.40
2016,10,05,13,28,621.30
2016,10,05,13,29,626.30
2016,10,05,13,30,653.80
2016,10,05,13,31,657.00
2016,10,05,13,32,252.80
2016,10,05,13,33,163.00
2016,10,05,13,34,163.00
2016,10,05,13,35,245.40
2016,10,05,13,36,422.00
2016,10,05,13,37,422.00
2016,10,05,13,38,236.30
2016,10,05,13,39,162.00
2016,10,05,13,40,143.30
2016,10,05,13,41,147.30
2016,10,05,13,42,156.00
2016,10,05,13,43,172.90
2016,10,05,13,44,186.00
2016,10,05,13,45,186.00
2016,10,05,13,46,210.00
2016,10,05,13,47,211.50
2016,10,05,13,48,149.40
2016,10,05,13,49,154.50
2016,10,05,13,50,169.70
2016,10,05,13,51,206.30
2016,10,05,13,52,229.00
2016,10,05,13,53,229.00
2016,10,05,13,54,272.70
2016,10,05,13,55,711.00
2016,10,05,13,56,718.00
2016,10,05,13,57,724.00
2016,10,05,13,58,420.60
2016,10,05,13,59,178.70
2016,10,05,14,00,157.40
2016,10,05,14,01,144.20
2016,10,05,14,02,136.30
2016,10,05,14,03,132.70
2016,10,05,14,04,131.70
2016,10,05,14,05,136.90
2016,10,05,14,06,150.60
2016,10,05,14,07,156.00
2016,10,05,14,08,156.00
2016,10,05,14,09,158.40
2016,10,05,14,10,179.50
2016,10,05,14,11,199.00
2016,10,05,14,12,204.50
2016,10,05,14,13,214.40
2016,10,05,14,14,219.30
2016,10,05,14,15,218.00
2016,10,05,14,16,215.50
2016,10,05,14,17,211.10
2016,10,05,14,18,204.70
2016,10,05,14,19,199.00
2016,10,05,14,20,194.10
2016,10,05,14,21,204.50
2016,10,05,14,22,186.70
2016,10,05,14,23,171.50
2016,10,05,14,24,157.80
2016,10,05,14,25,150.70
2016,10,05,14,26,144.60
2016,10,05,14,27,136.70
2016,10,05,14,28,129.00
2016,10,05,14,29,126.90
2016,10,05,14,30,125.00
2016,10,05,14,31,125.60
2016,10,05,14,32,128.30
2016,10,05,14,33,132.70
2016,10,05,14,34,141.40
2016,10,05,14,35,159.50
2016,10,05,14,36,184.20
2016,10,05,14,37,627.20
2016,10,05,14,38,621.10
2016,10,05,14,39,625.00
2016,10,05,14,40,620.00
2016,10,05,14,41,610.60
2016,10,05,14,42,600.60
2016,10,05,14,43,588.60
2016,10,05,14,44,578.70
2016,10,05,14,45,573.00
2016,10,05,14,46,572.20
2016,10,05,14,47,570.50
2016,10,05,14,48,568.60
2016,10,05,14,49,570.40
2016,10,05,14,50,577.20
2016,10,05,14,51,582.50
2016,10,05,14,52,579.30
2016,10,05,14,53,576.00
2016,10,05,14,54,590.70
2016,10,05,14,55,592.00
2016,10,05,14,56,593.70
2016,10,05,14,57,527.20
2016,10,05,14,58,491.50
2016,10,05,14,59,471.00
2016,10,05,15,00,406.20
2016,10,05,15,01,370.50
2016,10,05,15,02,411.00
2016,10,05,15,03,537.90
2016,10,05,15,04,550.10
2016,10,05,15,05,547.00
2016,10,05,15,06,547.30
2016,10,05,15,07,533.00
2016,10,05,15,08,530.50
2016,10,05,15,09,543.60
2016,10,05,15,10,541.40
2016,10,05,15,11,550.20
2016,10,05,15,12,564.00
2016,10,05,15,13,466.30
2016,10,05,15,14,291.50
2016,10,05,15,15,316.00
2016,10,05,15,16,316.00
2016,10,05,15,17,456.00
2016,10,05,15,18,440.30
2016,10,05,15,19,433.20
2016,10,05,15,20,420.00
2016,10,05,15,21,377.10
2016,10,05,15,22,308.70
2016,10,05,15,23,287.90
2016,10,05,15,24,286.60
2016,10,05,15,25,290.30
2016,10,05,15,26,261.30
2016,10,05,15,27,255.50
2016,10,05,15,28,249.10
2016,10,05,15,29,249.70
2016,10,05,15,30,251.00
2016,10,05,15,31,251.00
2016,10,05,15,32,257.60
2016,10,05,15,33,257.00
2016,10,05,15,34,258.70
2016,10,05,15,35,270.60
2016,10,05,15,36,264.70
2016,10,05,15,37,245.70
2016,10,05,15,38,237.20
2016,10,05,15,39,229.20
2016,10,05,15,40,216.70
2016,10,05,15,41,208.80
2016,10,05,15,42,202.30
2016,10,05,15,43,198.40
2016,10,05,15,44,195.70
2016,10,05,15,45,193.40
2016,10,05,15,46,192.00
2016,10,05,15,47,191.60
2016,10,05,15,48,189.40
2016,10,05,15,49,187.10
2016,10,05,15,50,184.40
2016,10,05,15,51,180.20
2016,10,05,15,52,179.00
2016,10,05,15,53,177.90
2016,10,05,15,54,175.50
2016,10,05,15,55,173.40
2016,10,05,15,56,172.00
2016,10,05,15,57,170.20
2016,10,05,15,58,166.20
2016,10,05,15,59,162.50
2016,10,05,16,00,159.70
2016,10,05,16,01,155.50
2016,10,05,16,02,152.40
2016,10,05,16,03,150.10
2016,10,05,16,04,148.40
2016,10,05,16,05,146.70
2016,10,05,16,06,146.00
2016,10,05,16,07,144.10
2016,10,05,16,08,144.00
2016,10,05,16,09,144.00
2016,10,05,16,10,144.90
2016,10,05,16,11,146.00
2016,10,05,16,12,146.00
2016,10,05,16,13,147.60
2016,10,05,16,14,148.00
2016,10,05,16,15,148.00
2016,10,05,16,16,147.30
2016,10,05,16,17,146.00
2016,10,05,16,18,146.00
2016,10,05,16,19,143.20
2016,10,05,16,20,136.30
2016,10,05,16,21,133.70
2016,10,05,16,22,129.00
2016,10,05,16,23,123.60
2016,10,05,16,24,116.80
2016,10,05,16,25,111.90
2016,10,05,16,26,112.40
2016,10,05,16,27,113.00
2016,10,05,16,28,109.00
2016,10,05,16,29,105.50
2016,10,05,16,30,108.30
2016,10,05,16,31,112.30
2016,10,05,16,32,116.20
2016,10,05,16,33,119.40
2016,10,05,16,34,120.00
2016,10,05,16,35,123.00
2016,10,05,16,36,127.60
2016,10,05,16,37,130.00
2016,10,05,16,38,130.00
2016,10,05,16,39,131.10
2016,10,05,16,40,133.40
2016,10,05,16,41,134.00
2016,10,05,16,42,135.10
2016,10,05,16,43,137.00
2016,10,05,16,44,137.60
2016,10,05,16,45,139.00
2016,10,05,16,46,139.00
2016,10,05,16,47,137.70
2016,10,05,16,48,137.00
2016,10,05,16,49,139.00
2016,10,05,16,50,142.40
2016,10,05,16,51,143.10
2016,10,05,16,52,142.30
2016,10,05,16,53,146.70
2016,10,05,16,54,149.00
2016,10,05,16,55,150.60
2016,10,05,16,56,155.60
2016,10,05,16,57,153.40
2016,10,05,16,58,155.30
2016,10,05,16,59,156.90
2016,10,05,17,00,160.20
2016,10,05,17,01,166.80
2016,10,05,17,02,186.20
2016,10,05,17,03,215.50
2016,10,05,17,04,173.60
2016,10,05,17,05,171.00
2016,10,05,17,06,172.40
2016,10,05,17,07,172.30
2016,10,05,17,08,171.00
2016,10,05,17,09,169.30
2016,10,05,17,10,167.30
2016,10,05,17,11,169.40
2016,10,05,17,12,171.90
2016,10,05,17,13,175.00
2016,10,05,17,14,181.30
2016,10,05,17,15,215.80
2016,10,05,17,16,293.80
2016,10,05,17,17,284.00
2016,10,05,17,18,271.30